Mesa, AZ

1:35 PM MST on December 02, 2016 (GMT -0700)
Phoenix-Mesa Gateway Airport

Weather History for KIWA - November, 2013

Change the Weather History Date:

Saturday, November 16, 2013

  Actual Average Record
Temperature  
Mean Temperature 64 °F -  
Max Temperature 73 °F 72 °F 87 °F (1999)
Min Temperature 55 °F 46 °F 35 °F (2000)
Degree Days  
Heating Degree Days 1    
Growing Degree Days 14 (Base 50)    
Moisture  
Dew Point 46 °F    
Average Humidity 60    
Maximum Humidity 82    
Minimum Humidity 31    
Precipitation  
Precipitation 0.00 in - - ()
Sea Level Pressure  
Sea Level Pressure 29.81 in    
Wind  
Wind Speed 6 mph (SSE)    
Max Wind Speed 16 mph    
Max Gust Speed -    
Visibility 13 miles    
Events      
Averages and records for this station are not official NWS values.
T = Trace of Precipitation, MM = Missing Value Source: NWS Daily Summary

Daily Weather History Graph

Daily Weather History Graph

Search for Another Location

Airport or City:

Trip Planner

Search our weather history database for the weather conditions in past years. The results will help you decide how hot, cold, wet, or windy it might be!

Date:

Astronomy

Nov. 16, 2013 Rise Set
Actual Time 6:58 AM MST 5:23 PM MST
Civil Twilight 6:32 AM MST 5:50 PM MST
Nautical Twilight 6:02 AM MST 6:20 PM MST
Astronomical Twilight 5:33 AM MST 6:49 PM MST
Moon 4:59 PM MST (11/16) 6:01 AM MST (11/16)
Length of Visible Light 11h 17m
Length of Day
10h 24m
Waxing Gibbous, 99% of the Moon is Illuminated
Nov 16
Waxing Gibbous
Nov 17
Full
Nov 25
Last Quarter
Dec 2
New
Dec 9
First Quarter

Hourly Weather History & Observations

Time (MST) Temp. Dew Point Humidity Pressure Visibility Wind Dir Wind Speed Gust Speed Precip Events Conditions
12:15 AM 62.6 °F 50.0 °F 63% 29.73 in 10.0 mi South 5.8 mph - N/A   Clear
12:35 AM 62.6 °F 50.0 °F 63% 29.73 in 10.0 mi SSW 4.6 mph - N/A   Clear
12:55 AM 62.6 °F 50.0 °F 63% 29.73 in 10.0 mi Calm Calm - N/A   Clear
1:15 AM 60.8 °F 50.0 °F 68% 29.73 in 10.0 mi SE 3.5 mph - N/A   Clear
1:35 AM 60.8 °F 51.8 °F 72% 29.73 in 10.0 mi SSE 8.1 mph - N/A   Clear
1:55 AM 62.6 °F 51.8 °F 68% 29.73 in 10.0 mi SSW 10.4 mph - N/A   Clear
2:15 AM 60.8 °F 50.0 °F 68% 29.73 in 10.0 mi SSE 5.8 mph - N/A   Clear
2:35 AM 59.0 °F 50.0 °F 72% 29.73 in 10.0 mi ESE 5.8 mph - N/A   Clear
2:55 AM 57.2 °F 50.0 °F 77% 29.73 in 10.0 mi SE 5.8 mph - N/A   Clear
3:15 AM 57.2 °F 50.0 °F 77% 29.74 in 10.0 mi SE 8.1 mph - N/A   Clear
3:35 AM 57.2 °F 50.0 °F 77% 29.74 in 10.0 mi SE 4.6 mph - N/A   Clear
3:55 AM 57.2 °F 50.0 °F 77% 29.75 in 10.0 mi SE 5.8 mph - N/A   Clear
4:15 AM 57.2 °F 51.8 °F 82% 29.75 in 10.0 mi SE 6.9 mph - N/A   Clear
4:35 AM 57.2 °F 51.8 °F 82% 29.75 in 10.0 mi SSE 8.1 mph - N/A   Clear
4:47 AM 57.2 °F 51.8 °F 82% 29.75 in 20.0 mi SE 8.1 mph - N/A   Scattered Clouds
4:55 AM 57.2 °F 51.8 °F 82% 29.75 in 10.0 mi SE 6.9 mph - N/A   Mostly Cloudy
5:15 AM 57.2 °F 51.8 °F 82% 29.76 in 10.0 mi SE 6.9 mph - N/A   Overcast
5:35 AM 57.2 °F 51.8 °F 82% 29.77 in 10.0 mi SE 6.9 mph - N/A   Overcast
5:47 AM 57.2 °F 51.8 °F 82% 29.77 in 20.0 mi SE 5.8 mph - N/A   Mostly Cloudy
6:47 AM 57.2 °F 51.8 °F 82% 29.79 in 20.0 mi SE 8.1 mph - N/A   Mostly Cloudy
7:47 AM 60.8 °F 51.8 °F 72% 29.81 in 20.0 mi SSE 9.2 mph - N/A   Mostly Cloudy
8:47 AM 62.6 °F 48.2 °F 59% 29.83 in 20.0 mi South 12.7 mph - N/A   Scattered Clouds
9:54 AM 64.4 °F 46.4 °F 52% 29.86 in 15.0 mi SSW 11.5 mph - N/A   Scattered Clouds
10:50 AM 66.2 °F 44.6 °F 46% 29.86 in 20.0 mi SSW 16.1 mph - N/A   Scattered Clouds
11:55 AM 69.8 °F 46.4 °F 43% 29.85 in 20.0 mi SSW 13.8 mph - N/A   Mostly Cloudy
12:47 PM 69.8 °F 44.6 °F 40% 29.82 in 20.0 mi SW 8.1 mph - N/A   Mostly Cloudy
1:47 PM 71.6 °F 42.8 °F 35% 29.80 in 35.0 mi SW 9.2 mph - N/A   Mostly Cloudy
2:47 PM 71.6 °F 41.0 °F 33% 29.78 in 35.0 mi WSW 6.9 mph - N/A   Mostly Cloudy
3:04 PM 73.4 °F 42.8 °F 33% 29.77 in 35.0 mi SW 4.6 mph - N/A   Scattered Clouds
4:47 PM 71.6 °F 39.2 °F 31% 29.78 in 35.0 mi SW 8.1 mph - N/A   Scattered Clouds
5:47 PM 66.2 °F 41.0 °F 40% 29.80 in 20.0 mi WNW 4.6 mph - N/A   Scattered Clouds
6:47 PM 64.4 °F 39.2 °F 40% 29.83 in 20.0 mi NNW 3.5 mph - N/A   Scattered Clouds
7:55 PM 62.6 °F 42.8 °F 48% 29.85 in 10.0 mi NNW 4.6 mph - N/A   Clear
8:15 PM 60.8 °F 41.0 °F 48% 29.86 in 10.0 mi NNW 6.9 mph - N/A   Clear
8:35 PM 60.8 °F 41.0 °F 48% 29.86 in 10.0 mi NNW 3.5 mph - N/A   Clear
8:47 PM 60.8 °F 42.8 °F 52% 29.87 in 20.0 mi Calm Calm - N/A   Scattered Clouds
8:55 PM 60.8 °F 41.0 °F 48% 29.87 in 10.0 mi North 4.6 mph - N/A   Clear
9:15 PM 59.0 °F 39.2 °F 48% 29.87 in 10.0 mi North 3.5 mph - N/A   Clear
9:35 PM 59.0 °F 41.0 °F 51% 29.88 in 10.0 mi Calm Calm - N/A   Clear
9:47 PM 60.8 °F 42.8 °F 52% 29.88 in 20.0 mi Calm Calm - N/A   Scattered Clouds
9:55 PM 57.2 °F 39.2 °F 51% 29.88 in 10.0 mi Calm Calm - N/A   Clear
10:15 PM 55.4 °F 39.2 °F 54% 29.89 in 10.0 mi SE 4.6 mph - N/A   Scattered Clouds
10:35 PM 57.2 °F 41.0 °F 55% 29.90 in 10.0 mi ESE 3.5 mph - N/A   Mostly Cloudy
10:47 PM 57.2 °F 42.8 °F 59% 29.90 in 20.0 mi Calm Calm - N/A   Scattered Clouds
10:55 PM 57.2 °F 42.8 °F 59% 29.90 in 10.0 mi SE 3.5 mph - N/A   Overcast
11:15 PM 57.2 °F 41.0 °F 55% 29.91 in 10.0 mi Calm Calm - N/A   Overcast
11:35 PM 57.2 °F 42.8 °F 59% 29.92 in 10.0 mi Calm Calm - N/A   Overcast
11:50 PM 57.2 °F 42.8 °F 59% 29.92 in 20.0 mi Calm Calm - N/A   Scattered Clouds
11:55 PM 57.2 °F 41.0 °F 55% 29.93 in 10.0 mi Calm Calm - N/A   Overcast